HORIZON (RS59S)

Last updated on Fri May 09 2025 00:03:04 GMT+0000 (Coordinated Universal Time)

1 61757U 24199Y 25128.49409239 .00026151 00000+0 73681-3 0 9991 2 61757 97.3610 357.9027 0009051 296.6736 63.3581 15.36378138 75217
UTC large
Height (km)
Speed (km/s)
/
Latitude / Longitude
Inclination (degrees)
Orbital Period (minutes)
Azimuth
Elevation
Range (km)
Doppler Factor

Next 0 passes for location: London (51.5072 / 0.1276)

Sorry there are no passes over London.